GALAXY 14 (G-14)

Last updated on Wed Feb 05 2025 00:02:38 GMT+0000 (Coordinated Universal Time)

1 28790U 05030A 25035.50413608 -.00000194 00000+0 00000+0 0 9999 2 28790 3.7356 81.1252 0003562 288.6602 121.5252 0.98916446 71305

Satellite not in orbit

GALAXY 14 (G-14)